Zurück zum Katalog

METEOR 1-27

AktivWetterPO
NORAD 9903·PAYLOAD·🇷🇺 Russia

Gestartet Apr 5, 1977 von Plesetsk Cosmodrome

Loading…

Nächste Überflüge (nächste 24 Stunden)

TLE

AktuellSource: Space-Track

Epoche: Sep 14, 2026, 09:38 UTC

1 09903U 77024A   26257.40143066  .00000170  00000-0  90330-4 0  9994
2 09903  81.2704  51.2486 0037844 110.9257 249.5970 14.08730630540111

Verfolge METEOR 1-27 in Echtzeit mit AllMySat

Download on the App Store